Preview of NWS' New Version of Forecast
This preview is not operational and should not be used for support decisions.

Regional Weather Roundup (RWR)

Issued by Lake Charles, LA (LCH)

                            
618 
ASUS44 KLCH 212310
RWRLCH
REGIONAL WEATHER ROUNDUP
NATIONAL WEATHER SERVICE LAKE CHARLES LA
600 PM CDT THU JUN 21 2018

Note: "fair" indicates few or no clouds below 12,000 feet with no
significant weather and/or obstructions to visibility.


ACROSS SOUTHEAST TEXAS
  
CITY           SKY/WX    TMP DP  RH WIND       PRES   REMARKS
BEAUMONT       FAIR      86  75  69 S16       29.87F                  
BEAUMONT CITY  MOCLDY    85  75  72 SW6       29.88F                  
ORANGE         FAIR      84  78  82 S6        29.89F                  
JASPER         PTSUNNY   87  78  76 S8        29.90S HX 100           
$$

ACROSS CENTRAL LOUISIANA
  
CITY           SKY/WX    TMP DP  RH WIND       PRES   REMARKS
LEESVILLE      PTSUNNY   85  75  71 W10       29.87S                  
FULLERTON      FAIR      86  78  77 CALM      29.85F                  
ALEXANDRIA INT PTSUNNY   86  76  71 S10       29.84F                  
ESLER FIELD    FAIR      87  76  69 SW13      29.86S                  
DERIDDER       CLOUDY    84  74  73 SW7       29.90F                  
OAKDALE        FAIR      85  75  71 S7        29.88S                  
OPELOUSAS      FAIR      82  73  76 SW6       29.89S                  
$$

ACROSS SOUTHWEST AND SOUTH CENTRAL LOUISIANA
  
CITY           SKY/WX    TMP DP  RH WIND       PRES   REMARKS
SULPHUR        FAIR      84  75  74 S8        29.89F                  
LAKE CHARLES   FAIR      84  76  76 S5        29.88F                  
CHENNAULT INT  PTSUNNY   84  75  74 SW7       29.89S                  
CAMERON PHI    CLEAR     82  77  83 SW8       29.89S                  
DEQUINCY       FAIR      82  76  80 SW3       29.89S                  
JENNINGS       FAIR      82  76  81 S3        29.89S                  
LAFAYETTE      FAIR      83  77  82 CALM      29.90S                  
NEW IBERIA     FAIR      83  74  74 E3        29.90F                  
ABBEVILLE      FAIR      83  78  83 SW6       29.90S                  
PATTERSON      FAIR      83  77  82 SW7       29.91F                  
SALT POINT       N/A    N/A N/A N/A CALM      29.89F                  
$$

SELECTED SITES ACROSS THE REGION
  
CITY           SKY/WX    TMP DP  RH WIND       PRES   REMARKS
HOUSTON BUSH   CLOUDY    88  76  67 S6        29.87F                  
HOUSTON HOBBY  PTSUNNY   85  78  80 S8        29.87F                  
GALVESTON      FAIR      84  78  82 S9        29.88F                  
COLLEGE STAT   CLOUDY    90  75  61 S5        29.86F HX 100           
CONROE         PTSUNNY   88  78  72 S9        29.87F HX 101           
HUNTSVILLE     PTSUNNY   89  76  65 S7        29.87S HX 100           
LUFKIN         SUNNY     91  75  59 SW7       29.85F HX 101           
SHREVEPORT     FAIR      91  72  53 SW9       29.83F                  
MONROE         FAIR      92  74  55 W9        29.82F HX 101           
NATCHEZ MS     FAIR      86  75  70 S9        29.88S                  
BATON ROUGE    FAIR      83  74  74 W8        29.89F                  
N.O. INTL ARPT PTSUNNY   88  76  67 SW7       29.89F                  
SLIDELL        FAIR      83  75  77 N5        29.89F                  
$$

MARINE REPORTS
  
STATION/POSITION TIME  SKY/WX   TEMP    WIND        PRES    VSBY
                                AIR SEA DIR/SP/G
                 (UTC)          (F)     (DEG/KT/KT) (MB)    (MI)
BUOY 30 S HIGH I NOT AVBL
SEA RIM ST PARK  2300            83     200/  7/  9 1012.4F
PORT ARTHUR      2248            84 82  210/  5/  8 1012.1F
SABINE PASS N    2248            84 85  210/  5/  8 1013.6F
TEXAS POINT      NOT AVBL
CALCASIEU PASS   2248            83 82  230/  8/  9 1011.4F
LK CHARLES BEACH 2248            83 82              1011.5F
MARSH ISLAND     2200            84                   N/A
FRESH WATER LOCK 2248            83 85  190/  8/  9 1012.4R
AMERADA PASS     2248            85 87  210/  1/  4 1012.9F
$$